User: anonymous   Login
Location: Nitra
(0.0000°N, 18.0833°E)
Time: 22:33:06
(UTC+02:00)
Language:

JY1SAT - Orbit

View from above orbital plane
View from above orbital plane
View from above satellite
View from above satellite

Ground track
Ground track

The orbit data is extracted from the following two-line orbital elements,

1 43803U 18099AX  23155.11392054  .00005704  00000-0  45411-3 0  9990
2 43803  97.5696 218.0177 0013927 134.4269 225.8097 15.00689090245731
Epoch (UTC): 04 June 2023 02:44:02
Eccentricity: 0.0013927
inclination: 97.5696°
perigee height: 555 km
apogee height: 574 km
right ascension of ascending node: 218.0177°
argument of perigee: 134.4269°
revolutions per day: 15.00689090
mean anomaly at epoch: 225.8097°
orbit number at epoch: 24573

The dashed part of the orbit path shows where the satellite is in the earth's shadow,  

DLR